User: anonymous   Login
Location: Unspecified
(0.0000°N, 0.0000°E)
Time: 09:50:34
(UTC+02:00)
Language:

Centaur AC-64 - Orbit

View from above orbital plane
View from above orbital plane
View from above satellite
View from above satellite

Ground track
Ground track

The orbit data is extracted from the following two-line orbital elements,

1 15874U 85055B   15090.30081113  .00004386  00000-0  17277-2 0  9997
2 15874 022.9566 193.8665 6596826 110.8700 344.8002 03.16015400304721
Epoch (UTC): 31 March 2015 07:13:10
Eccentricity: 0.6596826
inclination: 22.9566°
perigee height: 297 km
apogee height: 26177 km
right ascension of ascending node: 193.8665°
argument of perigee: 110.8700°
revolutions per day: 3.16015400
mean anomaly at epoch: 344.8002°
orbit number at epoch: 30472

The dashed part of the orbit path shows where the satellite is in the earth's shadow,  

DLR